THY2TK LTFM-LTCV

Flight info

Callsign THY2TK
Flight time N/A
Altitude 35000
Route VICEN1D/35L VICEN UT57 VEVUD UT341 BAG UL614 SRT UW197 ABDIK
Aircraft B738/M-SDE2E3FGHIRWXY/LB1

Departure

Time 2026-05-01 13:07
Airport İstanbul Airport (LTFM)

Arrival

Time N/A
Airport Şırnak Şerafettin Elçi Airport (LTCV)
Time Latitude Longitude Altitude Speed Heading
2026-05-01 12:37 41.25909 28.73542 333 ft 0 kts 104°
2026-05-01 12:55 41.25913 28.73523 329 ft 4 kts 107°
2026-05-01 12:56 41.25922 28.73489 331 ft 4 kts 114°
2026-05-01 12:56 41.25935 28.73458 329 ft 4 kts 129°
2026-05-01 12:56 41.25954 28.73437 330 ft 4 kts 171°
2026-05-01 12:56 41.25964 28.73437 329 ft 1 kts 196°
2026-05-01 12:59 41.25962 28.73436 329 ft 1 kts 196°
2026-05-01 12:59 41.25916 28.73377 331 ft 7 kts 253°
2026-05-01 13:00 41.25941 28.73253 331 ft 10 kts 333°
2026-05-01 13:00 41.26013 28.73242 330 ft 11 kts 359°
2026-05-01 13:01 41.26178 28.73236 331 ft 12 kts 348°
2026-05-01 13:01 41.26216 28.73145 332 ft 13 kts 272°
2026-05-01 13:01 41.26215 28.72982 332 ft 0 kts 268°
2026-05-01 13:07 41.37808 28.58617 8566 ft 284 kts 249°
2026-05-01 13:07 41.36678 28.56472 9447 ft 287 kts 221°
2026-05-01 13:07 41.34934 28.55243 10336 ft 287 kts 196°
2026-05-01 13:08 41.32886 28.54966 10669 ft 309 kts 180°
2026-05-01 13:08 41.30660 28.55053 10849 ft 332 kts 179°
2026-05-01 13:08 41.28274 28.55165 11057 ft 352 kts 179°
2026-05-01 13:08 41.25812 28.55529 11565 ft 363 kts 164°
2026-05-01 13:09 41.23548 28.57000 12335 ft 367 kts 144°
2026-05-01 13:09 41.21632 28.59296 12960 ft 374 kts 137°
2026-05-01 13:09 41.19781 28.61752 13638 ft 379 kts 136°
2026-05-01 13:09 41.17897 28.64254 14255 ft 384 kts 137°
2026-05-01 13:10 41.15983 28.66743 14939 ft 387 kts 138°
2026-05-01 13:10 41.14032 28.69244 15437 ft 393 kts 138°
2026-05-01 13:10 41.12128 28.71844 16161 ft 395 kts 130°
2026-05-01 13:10 41.10578 28.74906 16669 ft 404 kts 123°
2026-05-01 13:11 41.09107 28.78103 17249 ft 407 kts 124°
2026-05-01 13:11 41.07599 28.81279 17899 ft 409 kts 124°
2026-05-01 13:11 41.06044 28.84468 18423 ft 414 kts 125°
2026-05-01 13:11 41.04462 28.87673 18934 ft 418 kts 126°
2026-05-01 13:12 41.02865 28.90902 19476 ft 420 kts 126°
2026-05-01 13:12 41.01152 28.94030 19969 ft 420 kts 135°
2026-05-01 13:12 40.99099 28.96781 20449 ft 421 kts 140°
2026-05-01 13:12 40.96960 28.99441 20935 ft 423 kts 140°
2026-05-01 13:13 40.94807 29.02117 21417 ft 426 kts 140°
2026-05-01 13:13 40.92657 29.04838 21893 ft 430 kts 140°
2026-05-01 13:13 40.90549 29.07554 22358 ft 432 kts 139°
2026-05-01 13:13 40.88381 29.10368 22829 ft 435 kts 139°
2026-05-01 13:14 40.86220 29.13181 23283 ft 438 kts 138°
2026-05-01 13:14 40.84365 29.16425 23667 ft 450 kts 121°
2026-05-01 13:14 40.83299 29.20348 24059 ft 458 kts 107°
2026-05-01 13:14 40.82567 29.24452 24450 ft 460 kts 106°
2026-05-01 13:15 40.81815 29.28573 24782 ft 463 kts 107°
2026-05-01 13:15 40.81017 29.32714 25120 ft 466 kts 108°
2026-05-01 13:15 40.80192 29.36862 25452 ft 469 kts 108°
2026-05-01 13:15 40.79353 29.41036 25783 ft 471 kts 108°
2026-05-01 13:16 40.78513 29.45221 26099 ft 474 kts 108°
2026-05-01 13:16 40.77669 29.49435 26404 ft 476 kts 108°
2026-05-01 13:16 40.76819 29.53675 26724 ft 479 kts 108°
2026-05-01 13:17 40.74261 29.66399 27649 ft 485 kts 109°
2026-05-01 13:17 40.73436 29.70720 27924 ft 489 kts 104°
2026-05-01 13:18 40.73083 29.79719 28491 ft 498 kts 93°
2026-05-01 13:18 40.73099 29.84294 28761 ft 500 kts 93°
2026-05-01 13:18 40.73090 29.88892 29025 ft 502 kts 94°
2026-05-01 13:18 40.73037 29.93499 29327 ft 503 kts 95°
2026-05-01 13:19 40.72952 29.98103 29738 ft 501 kts 95°
2026-05-01 13:19 40.72856 30.02689 30175 ft 499 kts 95°
2026-05-01 13:19 40.71683 30.11533 30737 ft 486 kts 115°
2026-05-01 13:20 40.70493 30.15705 30978 ft 487 kts 116°
2026-05-01 13:20 40.69304 30.19893 31211 ft 488 kts 115°
2026-05-01 13:20 40.68160 30.24115 31505 ft 488 kts 115°
2026-05-01 13:21 40.65538 30.32279 31881 ft 477 kts 132°
2026-05-01 13:21 40.63500 30.35698 32155 ft 472 kts 136°
2026-05-01 13:21 40.61417 30.39040 32437 ft 472 kts 136°
2026-05-01 13:21 40.59355 30.42410 32653 ft 474 kts 135°
2026-05-01 13:22 40.57320 30.45827 32844 ft 475 kts 134°
2026-05-01 13:22 40.55330 30.49307 33073 ft 479 kts 129°
2026-05-01 13:22 40.53668 30.53146 33324 ft 487 kts 121°
2026-05-01 13:22 40.52412 30.57309 33550 ft 495 kts 111°
2026-05-01 13:23 40.51597 30.61728 33766 ft 499 kts 107°
2026-05-01 13:23 40.50893 30.66195 33994 ft 499 kts 107°
2026-05-01 13:23 40.50156 30.70646 34216 ft 499 kts 108°
2026-05-01 13:23 40.49346 30.75068 34441 ft 496 kts 110°
2026-05-01 13:24 40.48386 30.79404 34668 ft 493 kts 112°
2026-05-01 13:24 40.47353 30.83695 34872 ft 493 kts 113°
2026-05-01 13:24 40.46298 30.87977 35035 ft 493 kts 113°
2026-05-01 13:25 40.44204 30.96570 35106 ft 496 kts 112°
2026-05-01 13:25 40.42152 31.05193 35105 ft 493 kts 112°
2026-05-01 13:26 40.40134 31.13695 35092 ft 490 kts 112°
2026-05-01 13:26 40.38107 31.22207 35075 ft 488 kts 111°
2026-05-01 13:27 40.36549 31.30883 35083 ft 489 kts 106°
2026-05-01 13:27 40.34547 31.43996 35065 ft 489 kts 106°
2026-05-01 13:28 40.32432 31.57075 35060 ft 489 kts 107°
2026-05-01 13:29 40.29543 31.74533 35052 ft 491 kts 107°
2026-05-01 13:31 40.24841 32.00695 35036 ft 491 kts 111°
2026-05-01 13:32 40.20083 32.22003 35034 ft 488 kts 111°
2026-05-01 13:33 40.15413 32.43250 35026 ft 485 kts 111°
2026-05-01 13:34 40.11661 32.60162 35019 ft 483 kts 111°
2026-05-01 13:35 40.08842 32.72787 35003 ft 482 kts 111°
2026-05-01 13:36 40.05856 32.85295 34989 ft 478 kts 115°
2026-05-01 13:36 40.02240 32.97371 34997 ft 475 kts 116°
2026-05-01 13:37 40.00228 33.04048 34990 ft 475 kts 116°
2026-05-01 13:37 39.97436 33.13445 34989 ft 475 kts 116°
2026-05-01 13:38 39.93883 33.25429 34977 ft 474 kts 116°
2026-05-01 13:39 39.91499 33.33431 34966 ft 473 kts 116°
2026-05-01 13:39 39.89116 33.41402 34966 ft 472 kts 116°
2026-05-01 13:40 39.86723 33.49384 34948 ft 473 kts 116°
2026-05-01 13:40 39.84325 33.57366 34945 ft 473 kts 116°
2026-05-01 13:41 39.82178 33.65479 34954 ft 476 kts 110°
2026-05-01 13:41 39.80565 33.73857 34921 ft 478 kts 109°
2026-05-01 13:42 39.78930 33.82214 34932 ft 475 kts 109°
2026-05-01 13:42 39.77182 33.90486 34926 ft 472 kts 113°
2026-05-01 13:43 39.74957 33.98465 34928 ft 468 kts 116°
2026-05-01 13:43 39.72637 34.06313 34918 ft 468 kts 115°
2026-05-01 13:44 39.70347 34.14233 34910 ft 468 kts 115°
2026-05-01 13:44 39.68084 34.22160 34912 ft 468 kts 115°
2026-05-01 13:45 39.65816 34.30095 34908 ft 469 kts 115°
2026-05-01 13:45 39.63534 34.38047 34910 ft 471 kts 115°
2026-05-01 13:46 39.61234 34.46037 34900 ft 473 kts 114°
2026-05-01 13:46 39.59316 34.52703 34893 ft 475 kts 114°
2026-05-01 13:47 39.56998 34.60745 34898 ft 477 kts 114°
2026-05-01 13:47 39.54665 34.68814 34886 ft 478 kts 114°
2026-05-01 13:48 39.52322 34.76893 34882 ft 479 kts 114°
2026-05-01 13:48 39.49971 34.84972 34873 ft 479 kts 114°
2026-05-01 13:49 39.47616 34.93043 34874 ft 478 kts 114°
2026-05-01 13:49 39.45262 35.01086 34869 ft 477 kts 114°
2026-05-01 13:50 39.42908 35.09102 34869 ft 476 kts 114°
2026-05-01 13:50 39.40555 35.17095 34871 ft 475 kts 114°
2026-05-01 13:51 39.38239 35.25025 34875 ft 474 kts 114°
2026-05-01 13:51 39.35937 35.32994 34866 ft 472 kts 114°
2026-05-01 13:52 39.33634 35.40943 34870 ft 472 kts 114°
2026-05-01 13:52 39.31322 35.48883 34873 ft 472 kts 114°
2026-05-01 13:53 39.29001 35.56823 34861 ft 473 kts 114°
2026-05-01 13:53 39.25506 35.68732 34872 ft 473 kts 114°
2026-05-01 13:54 39.23167 35.76679 34858 ft 474 kts 114°
2026-05-01 13:54 39.20821 35.84624 34854 ft 474 kts 114°
2026-05-01 13:55 39.18474 35.92554 34858 ft 473 kts 114°
2026-05-01 13:55 39.16121 36.00479 34855 ft 474 kts 114°
2026-05-01 13:56 39.14511 36.08752 34858 ft 479 kts 102°
2026-05-01 13:56 39.13494 36.17233 34839 ft 479 kts 101°
2026-05-01 13:57 39.12492 36.25658 34850 ft 479 kts 102°
2026-05-01 13:57 39.11435 36.34127 34845 ft 479 kts 102°
2026-05-01 13:58 39.10347 36.42591 34843 ft 479 kts 103°
2026-05-01 13:58 39.09251 36.51038 34841 ft 478 kts 103°
2026-05-01 13:59 39.08151 36.59470 34852 ft 477 kts 103°
2026-05-01 13:59 39.07049 36.67877 34847 ft 476 kts 103°
2026-05-01 14:00 39.05944 36.76264 34850 ft 475 kts 103°
2026-05-01 14:00 39.04834 36.84643 34864 ft 474 kts 103°
2026-05-01 14:01 39.03720 36.92996 34859 ft 473 kts 103°
2026-05-01 14:01 39.02603 37.01330 34869 ft 473 kts 103°
2026-05-01 14:02 39.01482 37.09653 34874 ft 472 kts 103°
2026-05-01 14:02 39.00354 37.17970 34875 ft 472 kts 104°
2026-05-01 14:03 38.99227 37.26235 34880 ft 472 kts 104°
2026-05-01 14:03 38.98088 37.34549 34884 ft 473 kts 104°
2026-05-01 14:04 38.96941 37.42870 34884 ft 473 kts 104°
2026-05-01 14:04 38.95788 37.51196 34887 ft 473 kts 104°
2026-05-01 14:05 38.94627 37.59526 34885 ft 474 kts 104°
2026-05-01 14:05 38.93460 37.67860 34895 ft 474 kts 104°
2026-05-01 14:06 38.92287 37.76192 34888 ft 474 kts 104°
2026-05-01 14:06 38.91109 37.84513 34900 ft 473 kts 104°
2026-05-01 14:07 38.89928 37.92813 34893 ft 473 kts 104°
2026-05-01 14:08 38.88147 38.05246 34895 ft 472 kts 104°
2026-05-01 14:08 38.86961 38.13466 34903 ft 471 kts 104°
2026-05-01 14:09 38.85764 38.21723 34900 ft 470 kts 104°
2026-05-01 14:09 38.84562 38.29970 34902 ft 470 kts 104°
2026-05-01 14:10 38.83355 38.38215 34914 ft 470 kts 104°
2026-05-01 14:10 38.82141 38.46456 34918 ft 471 kts 104°
2026-05-01 14:11 38.80920 38.54710 34917 ft 472 kts 104°
2026-05-01 14:11 38.79073 38.67116 34929 ft 473 kts 104°
2026-05-01 14:12 38.77830 38.75407 34928 ft 474 kts 104°
2026-05-01 14:12 38.76589 38.83659 34929 ft 475 kts 104°
2026-05-01 14:13 38.75535 38.90626 34928 ft 476 kts 104°
2026-05-01 14:13 38.74095 39.00314 34929 ft 477 kts 104°
2026-05-01 14:14 38.72857 39.08663 34934 ft 477 kts 104°
2026-05-01 14:14 38.71610 39.17014 34943 ft 478 kts 104°
2026-05-01 14:15 38.70085 39.25272 34931 ft 474 kts 113°
2026-05-01 14:15 38.67751 39.33154 34935 ft 473 kts 114°
2026-05-01 14:16 38.65396 39.41017 34930 ft 473 kts 114°
2026-05-01 14:16 38.63095 39.48905 34946 ft 473 kts 114°
2026-05-01 14:17 38.60808 39.56795 34942 ft 473 kts 113°
2026-05-01 14:17 38.58555 39.64628 34954 ft 472 kts 113°
2026-05-01 14:18 38.56287 39.72501 34958 ft 472 kts 113°
2026-05-01 14:18 38.54383 39.79083 34971 ft 471 kts 113°
2026-05-01 14:19 38.51731 39.88216 34972 ft 472 kts 113°
2026-05-01 14:19 38.49439 39.96084 34975 ft 472 kts 114°
2026-05-01 14:20 38.45991 40.07880 34981 ft 473 kts 114°
2026-05-01 14:21 38.43682 40.15749 34984 ft 474 kts 114°
2026-05-01 14:21 38.41383 40.23568 34610 ft 465 kts 114°
2026-05-01 14:22 38.38008 40.34993 34649 ft 467 kts 114°
2026-05-01 14:22 38.35671 40.42866 34660 ft 476 kts 114°
2026-05-01 14:23 38.33312 40.50804 34661 ft 481 kts 114°
2026-05-01 14:23 38.30949 40.58739 34656 ft 483 kts 114°
2026-05-01 14:24 38.28559 40.66739 34648 ft 484 kts 114°
2026-05-01 14:24 38.26160 40.74744 34284 ft 482 kts 114°
2026-05-01 14:25 38.24971 40.78705 34045 ft 477 kts 114°
2026-05-01 14:25 38.23789 40.82629 33430 ft 475 kts 114°
2026-05-01 14:25 38.22582 40.86556 32639 ft 477 kts 114°
2026-05-01 14:25 38.21359 40.90483 31919 ft 478 kts 115°
2026-05-01 14:26 38.20128 40.94422 31193 ft 479 kts 115°
2026-05-01 14:26 38.17686 41.02248 30140 ft 473 kts 115°
2026-05-01 14:26 38.16483 41.06112 29551 ft 469 kts 115°
2026-05-01 14:27 38.15287 41.09944 29016 ft 463 kts 115°
2026-05-01 14:27 38.14105 41.13729 28489 ft 458 kts 115°
2026-05-01 14:27 38.12949 41.17464 28058 ft 451 kts 115°
2026-05-01 14:28 38.10688 41.24818 27060 ft 443 kts 114°
2026-05-01 14:28 38.09571 41.28449 26558 ft 440 kts 114°
2026-05-01 14:28 38.08460 41.32050 26066 ft 436 kts 115°
2026-05-01 14:28 38.07357 41.35620 25580 ft 433 kts 115°
2026-05-01 14:29 38.06272 41.39123 25100 ft 431 kts 115°
2026-05-01 14:29 38.05180 41.42646 24620 ft 428 kts 115°
2026-05-01 14:30 38.01927 41.53112 23083 ft 422 kts 114°
2026-05-01 14:30 38.00858 41.56569 22568 ft 419 kts 114°
2026-05-01 14:30 37.99806 41.59993 22081 ft 415 kts 114°
2026-05-01 14:31 37.97732 41.66748 21266 ft 405 kts 114°
2026-05-01 14:31 37.96713 41.70060 20823 ft 402 kts 114°
2026-05-01 14:31 37.95701 41.73341 20369 ft 399 kts 114°
2026-05-01 14:31 37.94693 41.76602 19899 ft 396 kts 114°
2026-05-01 14:32 37.93692 41.79839 19454 ft 393 kts 114°
2026-05-01 14:32 37.93032 41.81970 19157 ft 392 kts 114°
2026-05-01 14:32 37.91408 41.86037 18539 ft 384 kts 132°
2026-05-01 14:32 37.89448 41.88259 18083 ft 376 kts 149°
2026-05-01 14:33 37.87102 41.89625 17573 ft 370 kts 165°
2026-05-01 14:33 37.84629 41.90462 17114 ft 366 kts 168°
2026-05-01 14:33 37.82164 41.91221 16647 ft 363 kts 168°
2026-05-01 14:33 37.79716 41.91973 16188 ft 360 kts 168°
2026-05-01 14:34 37.77295 41.92735 15787 ft 357 kts 167°
2026-05-01 14:34 37.74918 41.93501 15696 ft 347 kts 167°
2026-05-01 14:34 37.72622 41.94250 15672 ft 335 kts 167°
2026-05-01 14:34 37.70402 41.94977 15659 ft 325 kts 167°
2026-05-01 14:35 37.68254 41.95680 15647 ft 312 kts 167°
2026-05-01 14:35 37.66203 41.96360 15649 ft 298 kts 167°
2026-05-01 14:35 37.64243 41.97011 15637 ft 284 kts 167°
2026-05-01 14:35 37.62380 41.97631 15638 ft 270 kts 167°
2026-05-01 14:36 37.60612 41.98218 15670 ft 257 kts 168°
2026-05-01 14:36 37.58906 41.98783 15659 ft 250 kts 168°
2026-05-01 14:36 37.57785 41.99154 15667 ft 253 kts 168°
2026-05-01 14:36 37.56047 41.99727 15678 ft 262 kts 168°
2026-05-01 14:37 37.54264 42.00315 15685 ft 267 kts 168°
2026-05-01 14:37 37.52474 42.00908 15665 ft 264 kts 168°
2026-05-01 14:37 37.50703 42.01494 15671 ft 262 kts 168°
2026-05-01 14:37 37.48939 42.02077 15666 ft 262 kts 168°
2026-05-01 14:38 37.47184 42.02656 15663 ft 260 kts 168°
2026-05-01 14:38 37.45435 42.03233 15661 ft 259 kts 168°
2026-05-01 14:38 37.43679 42.03688 15649 ft 256 kts 183°
2026-05-01 14:38 37.41967 42.03250 15682 ft 253 kts 206°
2026-05-01 14:39 37.40505 42.02009 15671 ft 257 kts 227°
2026-05-01 14:39 37.39508 42.00146 15666 ft 259 kts 248°
2026-05-01 14:39 37.39152 41.97933 15677 ft 260 kts 268°
2026-05-01 14:39 37.39471 41.95700 15650 ft 264 kts 294°
2026-05-01 14:40 37.40471 41.93765 15680 ft 264 kts 302°
2026-05-01 14:40 37.41494 41.91839 15672 ft 265 kts 299°
2026-05-01 14:40 37.42438 41.89848 15658 ft 265 kts 296°
2026-05-01 14:40 37.43310 41.87803 15660 ft 265 kts 294°
2026-05-01 14:41 37.44132 41.85727 15653 ft 265 kts 293°
2026-05-01 14:41 37.44928 41.83637 15657 ft 265 kts 292°
2026-05-01 14:41 37.45714 41.81540 15652 ft 265 kts 292°
2026-05-01 14:41 37.46483 41.79469 15653 ft 264 kts 290°
2026-05-01 14:42 37.46793 41.77242 15647 ft 257 kts 261°
2026-05-01 14:42 37.46215 41.75157 15647 ft 253 kts 234°
2026-05-01 14:42 37.44960 41.73640 15656 ft 252 kts 210°
2026-05-01 14:42 37.43296 41.72963 15647 ft 256 kts 185°
2026-05-01 14:43 37.41529 41.73304 15661 ft 264 kts 158°
2026-05-01 14:43 37.40037 41.74684 15654 ft 272 kts 131°
2026-05-01 14:43 37.39260 41.76838 15640 ft 277 kts 96°
2026-05-01 14:43 37.39467 41.79234 15670 ft 278 kts 79°
2026-05-01 14:44 37.39886 41.81617 15661 ft 280 kts 80°
2026-05-01 14:44 37.40538 41.86477 15663 ft 284 kts 83°
2026-05-01 14:44 37.40852 41.88935 15663 ft 286 kts 79°
2026-05-01 14:45 37.41584 41.91245 15648 ft 287 kts 51°
2026-05-01 14:45 37.45062 41.92796 15663 ft 273 kts 339°
2026-05-01 14:45 37.46594 41.91536 15660 ft 263 kts 303°
2026-05-01 14:46 37.47196 41.89458 15655 ft 253 kts 266°
2026-05-01 14:46 37.46381 41.85115 15669 ft 260 kts 257°
2026-05-01 14:46 37.46140 41.82866 15650 ft 259 kts 266°
2026-05-01 14:47 37.46272 41.80642 15638 ft 259 kts 281°
2026-05-01 14:47 37.46691 41.78453 15651 ft 256 kts 273°
2026-05-01 14:47 37.46532 41.76264 15649 ft 250 kts 249°
2026-05-01 14:48 37.44172 41.73169 15656 ft 259 kts 199°
2026-05-01 14:48 37.42388 41.72955 15649 ft 261 kts 171°
2026-05-01 14:48 37.39536 41.75627 15638 ft 271 kts 115°
2026-05-01 14:49 37.39684 41.80320 15658 ft 278 kts 79°
2026-05-01 14:49 37.40384 41.85159 15654 ft 281 kts 83°
2026-05-01 14:50 37.40888 41.89173 15653 ft 279 kts 78°
2026-05-01 14:50 37.43875 41.92781 15671 ft 276 kts 359°
2026-05-01 14:51 37.45690 41.92213 15685 ft 271 kts 323°
2026-05-01 14:51 37.47013 41.88223 15674 ft 257 kts 255°
2026-05-01 14:52 37.46209 41.83806 15663 ft 262 kts 262°
2026-05-01 14:52 37.46170 41.81503 15652 ft 266 kts 274°
2026-05-01 14:52 37.46691 41.76933 15637 ft 262 kts 257°
2026-05-01 14:53 37.46019 41.74854 15644 ft 257 kts 232°
2026-05-01 14:53 37.44681 41.73411 15637 ft 255 kts 205°
2026-05-01 14:53 37.42968 41.72913 15635 ft 256 kts 179°
2026-05-01 14:53 37.41247 41.73466 15645 ft 260 kts 152°
2026-05-01 14:54 37.39875 41.74951 15647 ft 265 kts 127°
2026-05-01 14:54 37.39270 41.77125 15645 ft 271 kts 90°
2026-05-01 14:54 37.39559 41.79504 15668 ft 280 kts 79°
2026-05-01 14:54 37.39959 41.81918 15657 ft 282 kts 81°
2026-05-01 14:55 37.40290 41.84340 15649 ft 281 kts 83°
2026-05-01 14:55 37.40572 41.86762 15661 ft 279 kts 83°
2026-05-01 14:55 37.40882 41.89169 15658 ft 279 kts 78°
2026-05-01 14:55 37.41656 41.91387 15645 ft 279 kts 47°
2026-05-01 14:56 37.43242 41.92687 15658 ft 275 kts 11°
2026-05-01 14:56 37.45110 41.92596 15672 ft 270 kts 334°
2026-05-01 14:56 37.46554 41.91177 15673 ft 266 kts 298°
2026-05-01 14:56 37.47044 41.89022 15663 ft 261 kts 263°
2026-05-01 14:57 37.46672 41.86794 15676 ft 262 kts 254°
2026-05-01 14:57 37.46127 41.82277 15640 ft 259 kts 270°
2026-05-01 14:57 37.46389 41.80045 15641 ft 260 kts 284°
2026-05-01 14:58 37.46731 41.77817 15641 ft 260 kts 266°
2026-05-01 14:58 37.46353 41.75619 15651 ft 258 kts 242°
2026-05-01 14:58 37.45250 41.73871 15643 ft 257 kts 216°
2026-05-01 14:58 37.43624 41.72963 15644 ft 260 kts 189°
2026-05-01 14:59 37.41827 41.73122 15655 ft 264 kts 162°
2026-05-01 14:59 37.40266 41.74349 15647 ft 270 kts 135°
2026-05-01 14:59 37.39321 41.76387 15629 ft 277 kts 103°
2026-05-01 14:59 37.39394 41.78798 15669 ft 279 kts 79°
2026-05-01 15:00 37.40186 41.83609 15660 ft 283 kts 82°
2026-05-01 15:00 37.40486 41.86057 15662 ft 283 kts 83°
2026-05-01 15:00 37.40782 41.88479 15659 ft 285 kts 81°
2026-05-01 15:01 37.41377 41.90847 15640 ft 286 kts 57°
2026-05-01 15:01 37.42833 41.92521 15662 ft 281 kts 21°
2026-05-01 15:01 37.44687 41.92850 15659 ft 272 kts 345°
2026-05-01 15:01 37.46311 41.91801 15648 ft 261 kts 308°
2026-05-01 15:02 37.47081 41.89795 15670 ft 258 kts 272°
2026-05-01 15:02 37.46991 41.88277 15681 ft 259 kts 255°
2026-05-01 15:02 37.46394 41.85353 15667 ft 261 kts 256°
2026-05-01 15:02 37.46138 41.83094 15655 ft 261 kts 265°
2026-05-01 15:03 37.46241 41.80817 15644 ft 262 kts 279°
2026-05-01 15:03 37.46676 41.78593 15650 ft 260 kts 275°
2026-05-01 15:03 37.46567 41.76364 15645 ft 254 kts 250°
2026-05-01 15:03 37.45722 41.74456 15641 ft 250 kts 225°
2026-05-01 15:04 37.44295 41.73242 15646 ft 249 kts 199°
2026-05-01 15:04 37.42564 41.72972 15648 ft 257 kts 174°
2026-05-01 15:04 37.40869 41.73748 15647 ft 267 kts 147°
2026-05-01 15:04 37.39609 41.75465 15633 ft 272 kts 118°
2026-05-01 15:05 37.39272 41.77784 15659 ft 275 kts 84°
2026-05-01 15:05 37.39645 41.80151 15654 ft 277 kts 79°
2026-05-01 15:05 37.40037 41.82525 15669 ft 278 kts 81°
2026-05-01 15:05 37.40354 41.84936 15662 ft 280 kts 83°
2026-05-01 15:06 37.40640 41.87365 15666 ft 282 kts 83°
2026-05-01 15:06 37.41014 41.89791 15657 ft 284 kts 73°
2026-05-01 15:06 37.42035 41.91887 15651 ft 284 kts 38°
2026-05-01 15:06 37.43791 41.92894 15653 ft 278 kts
2026-05-01 15:07 37.45630 41.92473 15662 ft 268 kts 326°
2026-05-01 15:07 37.46874 41.90837 15653 ft 258 kts 289°
2026-05-01 15:07 37.47071 41.88687 15674 ft 254 kts 256°
2026-05-01 15:07 37.46610 41.86488 15662 ft 260 kts 253°
2026-05-01 15:08 37.46234 41.84287 15656 ft 261 kts 260°
2026-05-01 15:08 37.46130 41.82011 15654 ft 261 kts 271°
2026-05-01 15:08 37.46452 41.79768 15646 ft 261 kts 283°
2026-05-01 15:08 37.46722 41.77539 15632 ft 256 kts 263°
2026-05-01 15:09 37.46259 41.75421 15645 ft 251 kts 239°
2026-05-01 15:09 37.45120 41.73798 15640 ft 249 kts 213°
2026-05-01 15:09 37.43508 41.72988 15647 ft 256 kts 188°
2026-05-01 15:09 37.41730 41.73195 15658 ft 263 kts 161°
2026-05-01 15:10 37.40198 41.74453 15648 ft 268 kts 134°
2026-05-01 15:10 37.39427 41.78879 15675 ft 275 kts 79°
2026-05-01 15:10 37.39838 41.81239 15659 ft 277 kts 80°
2026-05-01 15:11 37.40195 41.83629 15661 ft 279 kts 82°
2026-05-01 15:11 37.40780 41.88488 15663 ft 283 kts 81°
2026-05-01 15:11 37.41361 41.90844 15646 ft 285 kts 58°
2026-05-01 15:12 37.42787 41.92517 15664 ft 282 kts 22°
2026-05-01 15:12 37.46313 41.91841 15658 ft 263 kts 309°
2026-05-01 15:12 37.47106 41.89858 15655 ft 253 kts 272°
2026-05-01 15:13 37.46139 41.83277 15654 ft 258 kts 264°
2026-05-01 15:14 37.46635 41.78873 15653 ft 256 kts 277°
2026-05-01 15:14 37.46620 41.76680 15644 ft 250 kts 253°
2026-05-01 15:14 37.44506 41.73349 15664 ft 256 kts 204°
2026-05-01 15:15 37.41059 41.73575 15646 ft 262 kts 149°
2026-05-01 15:15 37.39269 41.77411 15651 ft 271 kts 87°
2026-05-01 15:16 37.39988 41.82111 15670 ft 276 kts 81°
2026-05-01 15:16 37.40590 41.86926 15668 ft 281 kts 83°
2026-05-01 15:17 37.41763 41.91577 15647 ft 285 kts 46°
2026-05-01 15:18 37.46728 41.91261 15660 ft 261 kts 297°
2026-05-01 15:18 37.47150 41.89127 15649 ft 251 kts 260°
2026-05-01 15:19 37.46123 41.82582 15658 ft 259 kts 268°
2026-05-01 15:19 37.46716 41.78139 15637 ft 255 kts 269°
2026-05-01 15:19 37.46452 41.75976 15655 ft 250 kts 245°
2026-05-01 15:20 37.43957 41.73095 15657 ft 257 kts 195°
2026-05-01 15:20 37.42181 41.73020 15648 ft 259 kts 168°
2026-05-01 15:20 37.40570 41.74017 15647 ft 263 kts 141°
2026-05-01 15:21 37.39465 41.75851 15632 ft 269 kts 111°
2026-05-01 15:21 37.39341 41.78179 15672 ft 271 kts 81°
2026-05-01 15:21 37.39736 41.80529 15670 ft 277 kts 79°
2026-05-01 15:21 37.40108 41.82926 15684 ft 280 kts 82°
2026-05-01 15:22 37.40685 41.87740 15654 ft 276 kts 83°
2026-05-01 15:22 37.41086 41.90091 15653 ft 275 kts 70°
2026-05-01 15:22 37.42165 41.91991 15654 ft 274 kts 33°
2026-05-01 15:23 37.43946 41.92772 15674 ft 275 kts 356°
2026-05-01 15:23 37.45750 41.92129 15672 ft 272 kts 321°
2026-05-01 15:23 37.46894 41.90329 15660 ft 263 kts 285°
2026-05-01 15:23 37.46974 41.88095 15671 ft 256 kts 255°
2026-05-01 15:24 37.46521 41.85918 15670 ft 259 kts 255°
2026-05-01 15:24 37.46190 41.83678 15659 ft 263 kts 262°
2026-05-01 15:24 37.46179 41.81370 15655 ft 266 kts 275°
2026-05-01 15:24 37.46599 41.79110 15655 ft 263 kts 280°
2026-05-01 15:25 37.46668 41.76864 15648 ft 254 kts 255°
2026-05-01 15:25 37.45979 41.74845 15650 ft 253 kts 231°
2026-05-01 15:25 37.44646 41.73422 15653 ft 254 kts 205°
2026-05-01 15:25 37.42931 41.72918 15649 ft 258 kts 179°
2026-05-01 15:26 37.41195 41.73484 15663 ft 263 kts 152°
2026-05-01 15:26 37.39822 41.75029 15651 ft 270 kts 126°
2026-05-01 15:26 37.39253 41.77277 15652 ft 277 kts 90°
2026-05-01 15:26 37.39517 41.79681 15663 ft 280 kts 80°
2026-05-01 15:27 37.39928 41.82083 15664 ft 282 kts 80°
2026-05-01 15:27 37.40285 41.84514 15660 ft 284 kts 83°
2026-05-01 15:27 37.40589 41.86963 15665 ft 284 kts 83°
2026-05-01 15:28 37.41838 41.91541 15643 ft 278 kts 43°
2026-05-01 15:28 37.43505 41.92665 15665 ft 275 kts
2026-05-01 15:28 37.45334 41.92393 15671 ft 270 kts 330°
2026-05-01 15:29 37.47013 41.88671 15675 ft 256 kts 258°
2026-05-01 15:29 37.46598 41.86491 15674 ft 259 kts 254°
2026-05-01 15:29 37.46131 41.81965 15651 ft 262 kts 271°
2026-05-01 15:30 37.46711 41.78257 15645 ft 258 kts 270°
2026-05-01 15:31 37.42274 41.73013 15658 ft 256 kts 169°
2026-05-01 15:31 37.39499 41.75751 15640 ft 270 kts 113°
2026-05-01 15:32 37.39704 41.80457 15664 ft 278 kts 79°
2026-05-01 15:32 37.40395 41.85274 15673 ft 282 kts 84°
2026-05-01 15:33 37.42259 41.92125 15656 ft 284 kts 33°
2026-05-01 15:34 37.46973 41.90556 15663 ft 258 kts 284°